TimeCEST,TemperatureF,Dew PointF,Humidity,Sea Level PressureIn,VisibilityMPH,Wind Direction,Wind SpeedMPH,Gust SpeedMPH,PrecipitationIn,Events,Conditions,WindDirDegrees,DateUTC
12:20 AM,71.6,62.6,73,30.04,-9999.0,South,4.6,-,N/A,,Clear,190,2013-08-16 22:20:00
12:50 AM,69.8,62.6,78,30.04,-9999.0,Variable,2.3,-,N/A,,Clear,0,2013-08-16 22:50:00
1:20 AM,69.8,62.6,78,30.04,-9999.0,SSW,3.5,-,N/A,,Clear,210,2013-08-16 23:20:00
1:50 AM,69.8,62.6,78,30.04,-9999.0,SW,4.6,-,N/A,,Clear,220,2013-08-16 23:50:00
2:20 AM,68.0,62.6,83,30.04,-9999.0,SSW,2.3,-,N/A,,Clear,200,2013-08-17 00:20:00
2:50 AM,69.8,60.8,73,30.04,-9999.0,South,3.5,-,N/A,,Clear,190,2013-08-17 00:50:00
3:20 AM,68.0,60.8,78,30.04,-9999.0,SSW,3.5,-,N/A,,Clear,210,2013-08-17 01:20:00
3:50 AM,68.0,60.8,78,30.04,-9999.0,SSW,4.6,-,N/A,,Clear,210,2013-08-17 01:50:00
4:50 AM,66.2,59.0,78,30.01,-9999.0,South,2.3,-,N/A,,Clear,190,2013-08-17 02:50:00
5:20 AM,68.0,60.8,78,30.01,-9999.0,SSW,3.5,-,N/A,,Clear,210,2013-08-17 03:20:00
5:50 AM,68.0,59.0,73,30.01,-9999.0,South,2.3,-,N/A,,Clear,180,2013-08-17 03:50:00
6:20 AM,66.2,60.8,83,30.04,-9999.0,Variable,2.3,-,N/A,,Clear,0,2013-08-17 04:20:00
6:50 AM,68.0,60.8,78,30.04,-9999.0,SSW,3.5,-,N/A,,Clear,210,2013-08-17 04:50:00
7:20 AM,68.0,60.8,78,30.04,-9999.0,South,3.5,-,N/A,,Clear,180,2013-08-17 05:20:00
7:50 AM,71.6,60.8,69,30.04,-9999.0,South,3.5,-,N/A,,Clear,180,2013-08-17 05:50:00
8:20 AM,73.4,62.6,69,30.04,-9999.0,Variable,2.3,-,N/A,,Clear,0,2013-08-17 06:20:00
8:50 AM,78.8,64.4,61,30.04,-9999.0,Variable,1.2,-,N/A,,Clear,0,2013-08-17 06:50:00
9:20 AM,80.6,64.4,58,30.04,-9999.0,Calm,Calm,-,N/A,,Clear,0,2013-08-17 07:20:00
9:50 AM,82.4,66.2,58,30.04,-9999.0,Variable,3.5,-,N/A,,Clear,0,2013-08-17 07:50:00
10:20 AM,82.4,64.4,54,30.04,-9999.0,Variable,4.6,-,N/A,,Clear,0,2013-08-17 08:20:00
10:50 AM,84.2,66.2,55,30.04,-9999.0,NE,6.9,-,N/A,,Clear,50,2013-08-17 08:50:00
11:20 AM,84.2,64.4,51,30.04,-9999.0,NE,9.2,-,N/A,,Clear,40,2013-08-17 09:20:00
11:50 AM,84.2,62.6,48,30.04,6.2,NE,10.4,-,N/A,,Partly Cloudy,40,2013-08-17 09:50:00
12:20 PM,86.0,68.0,55,30.04,6.2,NE,10.4,-,N/A,,Partly Cloudy,50,2013-08-17 10:20:00
12:50 PM,86.0,68.0,55,30.04,6.2,NNE,12.7,-,N/A,,Partly Cloudy,30,2013-08-17 10:50:00
1:20 PM,86.0,68.0,55,30.04,6.2,NE,10.4,-,N/A,,Partly Cloudy,50,2013-08-17 11:20:00
1:50 PM,82.4,68.0,62,30.04,6.2,NE,9.2,-,N/A,,Partly Cloudy,50,2013-08-17 11:50:00
2:20 PM,80.6,68.0,65,30.04,6.2,ENE,9.2,-,N/A,,Partly Cloudy,70,2013-08-17 12:20:00
2:50 PM,82.4,68.0,62,30.01,6.2,ENE,10.4,-,N/A,,Partly Cloudy,70,2013-08-17 12:50:00
3:20 PM,84.2,64.4,51,30.01,6.2,East,9.2,-,N/A,,Partly Cloudy,80,2013-08-17 13:20:00
3:50 PM,82.4,64.4,54,30.01,6.2,East,8.1,-,N/A,,Partly Cloudy,80,2013-08-17 13:50:00
4:20 PM,82.4,66.2,58,30.01,6.2,ENE,8.1,-,N/A,,Partly Cloudy,70,2013-08-17 14:20:00
4:50 PM,82.4,66.2,58,30.01,6.2,East,8.1,-,N/A,,Partly Cloudy,100,2013-08-17 14:50:00
5:20 PM,82.4,69.8,66,30.01,6.2,East,6.9,-,N/A,,Scattered Clouds,80,2013-08-17 15:20:00
5:50 PM,82.4,68.0,62,30.01,6.2,East,5.8,-,N/A,,Scattered Clouds,100,2013-08-17 15:50:00
6:20 PM,84.2,68.0,58,30.01,6.2,Variable,3.5,-,N/A,,Scattered Clouds,0,2013-08-17 16:20:00
6:50 PM,84.2,66.2,55,30.01,6.2,Variable,3.5,-,N/A,,Partly Cloudy,0,2013-08-17 16:50:00
7:20 PM,84.2,66.2,55,29.98,-9999.0,North,4.6,-,N/A,,Clear,350,2013-08-17 17:20:00
7:50 PM,82.4,68.0,62,30.01,-9999.0,NE,4.6,-,N/A,,Clear,50,2013-08-17 17:50:00
8:20 PM,78.8,68.0,69,30.01,-9999.0,East,4.6,-,N/A,,Clear,90,2013-08-17 18:20:00
8:50 PM,78.8,69.8,74,30.01,-9999.0,East,5.8,-,N/A,,Clear,90,2013-08-17 18:50:00
9:20 PM,77.0,69.8,78,30.04,-9999.0,Variable,2.3,-,N/A,,Clear,0,2013-08-17 19:20:00
9:50 PM,77.0,68.0,74,30.04,-9999.0,Calm,Calm,-,N/A,,Clear,0,2013-08-17 19:50:00
10:20 PM,75.2,68.0,78,30.04,-9999.0,Variable,2.3,-,N/A,,Clear,0,2013-08-17 20:20:00
10:50 PM,75.2,68.0,78,30.04,-9999.0,Variable,2.3,-,N/A,,Clear,0,2013-08-17 20:50:00
11:20 PM,75.2,68.0,78,30.04,-9999.0,SW,4.6,-,N/A,,Clear,220,2013-08-17 21:20:00
11:50 PM,73.4,66.2,78,30.04,-9999.0,SW,3.5,-,N/A,,Clear,230,2013-08-17 21:50:00